Simultaneous Nadir Overpasses (SNOs) Predictions

Prediction of SNOs between METOP-B and NOAA-19 Satellite Orbit:

Table of predicted SNOs for the next 14.0 days since TLE Epoch: 8/25/2017
Index Date (METOP-B) Time (METOP-B) Lat,Lon (METOP-B) SZA (METOP-B ) Date (NOAA-19) Time (NOAA-19) Lat,Lon (NOAA-19) SZA (NOAA-19 ) Distance(km) Time Diff (sec)
1 08/28/2017 23:29:15 77.52,-166.49 68.15 08/28/2017 23:28:09 77.51,-166.56 68.13 1.79 66
2 08/29/2017 00:19:57 -77.52, 0.80 111.85 08/29/2017 00:19:10 -77.49, 0.78 111.88 2.37 47
3 08/29/2017 01:10:37 77.50, 168.07 68.15 08/29/2017 01:10:10 77.49, 168.04 68.14 1.23 27
4 08/29/2017 02:01:19 -77.50, -24.63 111.85 08/29/2017 02:01:11 -77.47, -24.62 111.87 2.37 8
5 08/29/2017 02:51:59 77.48, 142.64 68.15 08/29/2017 02:52:11 77.47, 142.63 68.15 0.85 12
6 08/29/2017 03:42:41 -77.47, -50.06 111.85 08/29/2017 03:43:12 -77.45, -50.02 111.86 2.57 31
7 08/29/2017 04:33:21 77.46, 117.21 68.16 08/29/2017 04:34:12 77.45, 117.23 68.15 0.90 51
8 08/29/2017 05:24:03 -77.45, -75.49 111.84 08/29/2017 05:25:13 -77.43, -75.43 111.86 2.93 70
9 09/08/2017 17:57:02 77.54, -83.38 72.14 09/08/2017 17:55:51 77.54, -83.28 72.13 2.56 71
10 09/08/2017 18:47:44 -77.55, 83.96 107.85 09/08/2017 18:46:55 -77.53, 83.99 107.87 2.10 49
11 09/08/2017 19:38:24 77.52,-108.81 72.15 09/08/2017 19:37:52 77.52,-108.68 72.14 3.16 32
12 09/08/2017 20:29:06 -77.53, 58.53 107.84 09/08/2017 20:28:56 -77.51, 58.59 107.86 2.40 10
13 09/08/2017 21:19:46 77.50,-134.24 72.15 09/08/2017 21:19:53 77.50,-134.09 72.15 3.77 7




NCC Satellite Simultaneous Nadir Overpasses (SNOs) Prediction Service
